Liberal, KS

8:16 AM CDT on March 26, 2017 (GMT -0500)
Liberal Municipal

Weather History for KLBL - July, 2013

Change the Weather History Date:

Friday, July 5, 2013

  Actual Average Record
Temperature  
Mean Temperature 84 °F -  
Max Temperature 98 °F 94 °F 107 °F (1953)
Min Temperature 69 °F 65 °F 57 °F (1972)
Cooling Degree Days 18    
Growing Degree Days 34 (Base 50)    
Moisture  
Dew Point 48 °F    
Average Humidity 30    
Maximum Humidity 43    
Minimum Humidity 20    
Precipitation  
Precipitation 0.00 in - - ()
Sea Level Pressure  
Sea Level Pressure 29.89 in    
Wind  
Wind Speed 16 mph (South)    
Max Wind Speed 29 mph    
Max Gust Speed 37 mph    
Visibility 10 miles    
Events Thunderstorm    
Averages and records for this station are not official NWS values.
T = Trace of Precipitation, MM = Missing Value Source: NWS Daily Summary

Daily Weather History Graph

Daily Weather History Graph

Search for Another Location

Airport or City:

Trip Planner

Search our weather history database for the weather conditions in past years. The results will help you decide how hot, cold, wet, or windy it might be!

Date:

Astronomy

Jul. 05, 2013 Rise Set
Actual Time 6:29 AM CDT 9:06 PM CDT
Civil Twilight 5:59 AM CDT 9:37 PM CDT
Nautical Twilight 5:21 AM CDT 10:15 PM CDT
Astronomical Twilight 4:38 AM CDT 10:57 PM CDT
Moon 4:29 AM CDT (7/5) 7:04 PM CDT (7/5)
Length of Visible Light 15h 38m
Length of Day
14h 36m
Waning Crescent, 6% of the Moon is Illuminated
Jul 5
Waning Crescent
Jul 8
New
Jul 15
First Quarter
Jul 22
Full
Jul 29
Last Quarter

Hourly Weather History & Observations

Time (CDT) Temp. Heat Index Dew Point Humidity Pressure Visibility Wind Dir Wind Speed Gust Speed Precip Events Conditions
12:15 AM 71.6 °F - 46.4 °F 41% 29.96 in 10.0 mi South 11.5 mph - N/A   Clear
12:35 AM 73.4 °F - 46.4 °F 38% 29.96 in 10.0 mi South 10.4 mph - N/A   Clear
12:55 AM 71.6 °F - 46.4 °F 41% 29.95 in 10.0 mi South 10.4 mph - N/A   Clear
1:15 AM 69.8 °F - 46.4 °F 43% 29.95 in 10.0 mi SSE 8.1 mph - N/A   Clear
1:35 AM 69.8 °F - 46.4 °F 43% 29.95 in 10.0 mi SSE 9.2 mph - N/A   Clear
1:55 AM 71.6 °F - 46.4 °F 41% 29.94 in 10.0 mi SSE 11.5 mph - N/A   Clear
2:15 AM 71.6 °F - 46.4 °F 41% 29.95 in 10.0 mi SSE 11.5 mph - N/A   Clear
2:35 AM 71.6 °F - 44.6 °F 38% 29.95 in 10.0 mi South 12.7 mph - N/A   Clear
2:55 AM 71.6 °F - 46.4 °F 41% 29.94 in 10.0 mi South 13.8 mph - N/A   Clear
3:15 AM 71.6 °F - 44.6 °F 38% 29.94 in 10.0 mi South 12.7 mph - N/A   Clear
3:35 AM 71.6 °F - 44.6 °F 38% 29.94 in 10.0 mi South 16.1 mph - N/A   Clear
3:55 AM 71.6 °F - 44.6 °F 38% 29.94 in 10.0 mi South 12.7 mph - N/A   Clear
4:15 AM 71.6 °F - 44.6 °F 38% 29.94 in 10.0 mi South 13.8 mph - N/A   Clear
4:35 AM 71.6 °F - 44.6 °F 38% 29.94 in 10.0 mi South 13.8 mph - N/A   Clear
4:55 AM 71.6 °F - 44.6 °F 38% 29.93 in 10.0 mi South 13.8 mph - N/A   Clear
5:15 AM 71.6 °F - 44.6 °F 38% 29.93 in 10.0 mi South 13.8 mph - N/A   Mostly Cloudy
5:35 AM 71.6 °F - 44.6 °F 38% 29.94 in 10.0 mi South 9.2 mph - N/A Thunderstorm Thunderstorm
5:55 AM 71.6 °F - 44.6 °F 38% 29.94 in 10.0 mi SSE 9.2 mph - N/A   Mostly Cloudy
6:15 AM 69.8 °F - 44.6 °F 40% 29.93 in 10.0 mi SSE 12.7 mph - N/A Thunderstorm Scattered Clouds
6:35 AM 69.8 °F - 44.6 °F 40% 29.93 in 10.0 mi South 13.8 mph - N/A   Scattered Clouds
6:55 AM 71.6 °F - 44.6 °F 38% 29.93 in 10.0 mi South 15.0 mph - N/A   Partly Cloudy
7:15 AM 71.6 °F - 44.6 °F 38% 29.93 in 10.0 mi South 13.8 mph - N/A   Partly Cloudy
7:35 AM 71.6 °F - 44.6 °F 38% 29.93 in 10.0 mi South 13.8 mph - N/A   Clear
7:55 AM 71.6 °F - 46.4 °F 41% 29.93 in 10.0 mi South 13.8 mph - N/A   Clear
8:15 AM 73.4 °F - 46.4 °F 38% 29.94 in 10.0 mi South 18.4 mph - N/A   Clear
8:35 AM 75.2 °F - 46.4 °F 36% 29.94 in 10.0 mi South 21.9 mph 26.5 mph N/A   Clear
8:55 AM 75.2 °F - 48.2 °F 38% 29.94 in 10.0 mi South 18.4 mph 27.6 mph N/A   Clear
9:15 AM 78.8 °F - 48.2 °F 34% 29.94 in 10.0 mi South 20.7 mph 25.3 mph N/A   Clear
9:35 AM 80.6 °F - 50.0 °F 34% 29.93 in 10.0 mi South 19.6 mph 28.8 mph N/A   Clear
9:55 AM 80.6 °F - 50.0 °F 34% 29.93 in 10.0 mi SSW 24.2 mph - N/A   Clear
10:15 AM 84.2 °F - 51.8 °F 33% 29.93 in 10.0 mi SSW 26.5 mph 31.1 mph N/A   Clear
10:35 AM 84.2 °F - 51.8 °F 33% 29.92 in 10.0 mi SSW 26.5 mph 29.9 mph N/A   Clear
10:55 AM 86.0 °F - 51.8 °F 31% 29.92 in 10.0 mi SSW 24.2 mph 33.4 mph N/A   Clear
11:15 AM 87.8 °F - 51.8 °F 29% 29.92 in 10.0 mi SSW 26.5 mph 31.1 mph N/A   Clear
11:35 AM 87.8 °F 85.7 °F 53.6 °F 31% 29.92 in 10.0 mi South 24.2 mph 29.9 mph N/A   Clear
11:55 AM 89.6 °F 87.3 °F 53.6 °F 29% 29.91 in 10.0 mi SSW 25.3 mph 29.9 mph N/A   Clear
12:15 PM 89.6 °F 87.3 °F 53.6 °F 29% 29.91 in 10.0 mi SSW 23.0 mph 32.2 mph N/A   Clear
12:35 PM 91.4 °F 89.1 °F 53.6 °F 28% 29.90 in 10.0 mi South 25.3 mph 31.1 mph N/A   Clear
12:55 PM 91.4 °F 89.1 °F 53.6 °F 28% 29.90 in 10.0 mi South 24.2 mph 34.5 mph N/A   Clear
1:15 PM 93.2 °F 90.8 °F 53.6 °F 26% 29.89 in 10.0 mi South 25.3 mph 33.4 mph N/A   Clear
1:35 PM 93.2 °F 90.8 °F 53.6 °F 26% 29.88 in 10.0 mi SSW 28.8 mph 35.7 mph N/A   Clear
1:55 PM 95.0 °F 92.7 °F 53.6 °F 25% 29.88 in 10.0 mi SSW 28.8 mph 36.8 mph N/A   Clear
2:15 PM 95.0 °F - 51.8 °F 23% 29.87 in 10.0 mi SSW 24.2 mph 32.2 mph N/A   Clear
2:35 PM 95.0 °F - 51.8 °F 23% 29.87 in 10.0 mi SSW 26.5 mph 33.4 mph N/A   Clear
2:55 PM 96.8 °F 94.4 °F 53.6 °F 23% 29.86 in 10.0 mi SW 25.3 mph 28.8 mph N/A   Clear
3:15 PM 96.8 °F 94.4 °F 53.6 °F 23% 29.86 in 10.0 mi SSW 25.3 mph 33.4 mph N/A   Clear
3:35 PM 96.8 °F - 51.8 °F 22% 29.85 in 10.0 mi SSW 24.2 mph 33.4 mph N/A   Clear
3:55 PM 98.6 °F 96.4 °F 53.6 °F 22% 29.85 in 10.0 mi SSW 24.2 mph 34.5 mph N/A   Clear
4:15 PM 98.6 °F - 51.8 °F 21% 29.84 in 10.0 mi SSW 21.9 mph 32.2 mph N/A   Clear
4:35 PM 98.6 °F - 51.8 °F 21% 29.83 in 10.0 mi South 23.0 mph 32.2 mph N/A   Clear
4:55 PM 98.6 °F - 51.8 °F 21% 29.82 in 10.0 mi SSW 25.3 mph 31.1 mph N/A   Clear
5:15 PM 98.6 °F - 51.8 °F 21% 29.81 in 10.0 mi South 20.7 mph 34.5 mph N/A   Clear
5:35 PM 96.8 °F - 51.8 °F 22% 29.81 in 10.0 mi South 21.9 mph 29.9 mph N/A   Clear
5:55 PM 96.8 °F - 50.0 °F 20% 29.81 in 10.0 mi South 23.0 mph 32.2 mph N/A   Clear
6:15 PM 96.8 °F - 50.0 °F 20% 29.81 in 10.0 mi South 27.6 mph - N/A   Clear
6:35 PM 96.8 °F - 50.0 °F 20% 29.81 in 10.0 mi South 21.9 mph 34.5 mph N/A   Clear
6:55 PM 93.2 °F - 48.2 °F 21% 29.81 in 10.0 mi South 21.9 mph 34.5 mph N/A   Clear
7:15 PM 93.2 °F - 48.2 °F 21% 29.81 in 10.0 mi South 23.0 mph 29.9 mph N/A   Clear
7:35 PM 91.4 °F - 48.2 °F 23% 29.82 in 10.0 mi South 23.0 mph 27.6 mph N/A   Clear
7:55 PM 91.4 °F - 48.2 °F 23% 29.82 in 10.0 mi South 19.6 mph 28.8 mph N/A   Partly Cloudy
8:15 PM 91.4 °F - 46.4 °F 21% 29.82 in 10.0 mi South 19.6 mph - N/A   Clear
8:35 PM 89.6 °F - 46.4 °F 22% 29.83 in 10.0 mi South 19.6 mph 27.6 mph N/A   Clear
8:55 PM 89.6 °F - 46.4 °F 22% 29.83 in 10.0 mi South 19.6 mph 27.6 mph N/A   Clear
9:15 PM 89.6 °F - 46.4 °F 22% 29.83 in 10.0 mi South 19.6 mph 24.2 mph N/A   Clear
9:35 PM 87.8 °F - 46.4 °F 24% 29.83 in 10.0 mi South 18.4 mph 26.5 mph N/A   Clear
9:55 PM 87.8 °F - 46.4 °F 24% 29.84 in 10.0 mi South 20.7 mph - N/A   Clear
10:15 PM 87.8 °F - 46.4 °F 24% 29.85 in 10.0 mi South 18.4 mph 26.5 mph N/A   Clear
10:35 PM 86.0 °F - 46.4 °F 25% 29.85 in 10.0 mi South 18.4 mph - N/A   Clear
10:55 PM 84.2 °F - 44.6 °F 25% 29.86 in 10.0 mi South 19.6 mph 24.2 mph N/A   Clear
11:15 PM 84.2 °F - 44.6 °F 25% 29.87 in 10.0 mi South 17.3 mph - N/A   Clear
11:35 PM 84.2 °F - 44.6 °F 25% 29.88 in 10.0 mi South 16.1 mph 21.9 mph N/A   Clear
11:55 PM 84.2 °F - 44.6 °F 25% 29.89 in 10.0 mi South 16.1 mph - N/A   Partly Cloudy